Location: Moscow
(55.7500°N, 37.5830°E)
Time: 19:55:55
(UTC+03:00)

ISS - Pass Details

Date: 21 May 2021
Orbit: 417 x 422 km, 51.6° (Epoch: 16 June)

Event Time Altitude Azimuth Distance (km) Brightness Sun altitude
Rises 21:35:06 0° 253° (WSW) 2,364 0.4 -5.7°
Reaches altitude 10° 21:37:16 10° 246° (WSW) 1,501 -0.7 -5.9°
Maximum altitude 21:40:26 40° 175° (S) 634 -3.2 -6.2°
Drops below altitude 10° 21:43:38 10° 104° (ESE) 1,505 -1.4 -6.5°
Enters shadow 21:45:27 - 98° (E) 2,226 -0.5 -6.6°
